Regional Weather Roundup
Issued by NWS

Home | Current Version | Previous Version | Text Only | Print | Product List | Glossary Off
Versions: 1 2 3 4 5 6 7 8 9 10 11 12 13 14 15 16 17 18 19 20 21 22 23 24 25 26 27 28 29 30 31 32 33 34 35 36 37 38 39 40 41 42 43 44 45 46 47 48 49 50

000
ASUS43 KLMK 201610
RWRKY
KENTUCKY REGIONAL WEATHER ROUNDUP
NATIONAL WEATHER SERVICE LOUISVILLE KY
1200 PM EDT MON OCT 20 2014

NOTE "FAIR" INDICATES FEW OR NO CLOUDS BELOW 12,000 FEET
WITH NO SIGNIFICANT WEATHER AND/OR OBSTRUCTIONS TO VISIBILITY.

KYZ001>023-026-027-061>063-070>075-201700-
WESTERN AND SOUTH CENTRAL KENTUCKY

CITY           SKY/WX    TMP DP  RH WIND       PRES   REMARKS
PADUCAH        PTSUNNY   60  51  72 SW9       30.03F
HENDERSON      CLOUDY    61  48  63 SW14      30.00F
OWENSBORO      PTSUNNY   60  51  72 SW15      30.01F
HOPKINSVILLE   LGT RAIN  57  53  85 SW8       30.06F
BOWLING GREEN  CLOUDY    59  48  67 SW13      30.05F
GLASGOW        PTSUNNY   58  49  73 SW5       30.07F
$$

KYZ024-025-028>034-038-045-046-053-201700-
NORTH CENTRAL KENTUCKY

CITY           SKY/WX    TMP DP  RH WIND       PRES   REMARKS
LOUISVILLE/SDF CLOUDY    56  49  77 S10       30.00F
LOUISVILLE/LOU PTSUNNY   54  49  83 S7        30.01F
FORT KNOX      PTSUNNY   54  50  85 S9        30.00F
$$

KYZ035>037-039>044-047>052-055>060-089>105-201700-
NORTHEAST KENTUCKY

CITY           SKY/WX    TMP DP  RH WIND       PRES   REMARKS
LEXINGTON      CLOUDY    54  48  80 SW10      30.03F
COVINGTON      NOT AVBL
FRANKFORT      PTSUNNY   53  48  83 SW13      30.02F
$$

KYZ054-064>069-076>088-106>120-201700-
SOUTHEAST KENTUCKY

CITY           SKY/WX    TMP DP  RH WIND       PRES   REMARKS
JACKSON        CLOUDY    54  45  71 CALM      30.07S
LONDON         PTSUNNY   58  45  62 SW6       30.07F
SOMERSET       CLOUDY    52  46  82 CALM      30.08F
MIDDLESBORO    SUNNY     62  47  58 S7        30.08F
MONTICELLO     CLOUDY    59  48  66 SW8       30.09F
$$




USA.gov is the U.S. government's official web portal to all federal, state and local government web resources and services.